Wind_Speed
3 3 3 4 4 3 2 1 1 1 1 1 2 3 4 5 6 7 7 7 8 8 9 9 9 9 9 9 8 8 7 6 6 5 4 3 2 2 1 1 1 1 1
4 5 5 6 5 4 3 3 2 2 2 2 3 4 4 5 5 6 7 7 8 8 9 9 9 9 9 9 9 8 8 7 6 6 4 3 3 2 2 1 1 0 1
7 7 8 7 7 6 5 4 4 4 4 4 4 5 5 6 6 6 7 7 8 9 9 10 10 9 9 9 9 8 8 7 7 6 5 4 3 3 2 2 1 1 1
9 9 10 9 8 7 6 6 6 6 6 6 6 6 6 6 7 7 8 8 8 9 9 10 10 10 10 9 9 9 8 8 7 6 6 5 5 4 3 3 2 2 1
11 11 11 11 9 9 8 8 8 8 8 8 8 8 8 8 8 9 9 9 9 10 10 10 10 10 10 10 10 10 9 9 8 7 7 6 6 5 5 4 4 3 2
12 13 12 12 11 10 10 9 9 9 9 9 10 10 10 10 10 10 11 11 11 11 11 11 11 11 11 11 11 10 10 9 9 8 7 7 6 6 6 6 5 4 4
12 13 12 12 12 11 11 11 11 11 11 11 11 11 11 12 12 12 13 13 13 13 13 12 12 12 12 12 12 11 11 10 10 9 9 8 7 7 7 7 6 6 5
13 13 13 13 13 12 12 13 13 13 13 13 13 13 13 13 14 14 15 15 15 15 15 15 14 14 14 14 13 13 12 12 11 11 10 9 9 9 9 8 7 7 7
14 14 13 14 13 13 14 14 14 14 15 15 15 15 15 15 16 16 16 17 17 17 17 17 17 16 16 16 15 14 14 13 13 13 12 11 11 11 10 10 9 8 8
14 13 13 14 14 14 15 15 15 16 16 17 17 17 17 17 17 17 17 18 18 18 18 18 18 18 18 17 17 16 15 15 15 14 14 13 12 12 12 12 11 10 10
16 15 15 15 15 16 16 17 17 17 17 18 19 19 19 19 18 18 19 19 19 19 19 20 19 19 19 18 18 18 17 16 16 16 16 15 14 14 14 14 13 13 12
16 16 16 15 16 16 15 16 17 17 17 18 18 19 19 20 20 20 20 20 20 20 21 21 21 21 20 19 19 19 19 19 18 18 18 17 17 16 16 15 15 15 15
15 15 15 14 15 17 17 17 17 17 18 19 19 20 20 21 21 21 21 21 22 22 22 22 22 22 22 21 20 20 20 20 20 20 20 19 18 18 18 17 17 17 16
15 14 15 15 16 17 18 18 18 18 18 19 19 21 21 22 22 22 22 22 23 23 23 23 23 23 23 23 22 22 21 21 21 21 21 21 20 20 19 19 19 19 18
17 16 15 15 17 18 18 18 18 19 20 20 20 21 22 23 23 23 23 24 24 24 24 25 25 24 24 23 23 23 23 23 23 23 23 22 21 21 20 20 20 20 21
16 15 15 16 16 18 19 19 19 20 20 21 21 22 23 24 24 24 25 25 25 25 25 26 26 25 25 25 24 24 24 24 23 23 23 23 23 23 22 21 22 21 22
17 15 16 16 18 19 20 20 20 20 21 21 22 23 23 24 24 25 25 25 25 25 25 25 26 26 26 26 27 26 25 25 24 24 24 24 23 23 23 23 23 23 22
15 16 16 16 17 18 19 19 20 20 21 21 22 23 24 24 25 25 26 26 25 26 26 26 26 26 26 27 29 29 28 27 26 25 25 25 25 24 25 24 24 24 24
15 16 16 16 17 18 18 19 20 20 21 21 22 24 25 26 26 27 27 27 27 26 26 27 27 27 27 28 29 29 29 29 28 27 27 27 26 26 27 26 26 26 25
16 16 15 16 17 18 18 19 20 20 21 22 23 24 25 26 26 27 28 28 28 28 28 28 27 27 28 28 28 29 29 29 29 28 29 29 28 28 29 28 27 27 26
17 17 17 18 18 18 19 20 20 20 21 21 22 24 25 26 27 28 28 29 28 29 29 29 28 28 29 29 29 29 29 30 30 30 30 29 29 29 30 29 28 28 27
17 17 18 18 18 19 20 21 21 20 20 21 22 23 24 24 26 27 27 27 28 28 29 29 29 29 29 30 29 29 29 30 30 31 31 30 30 29 29 29 29 29 29
17 17 17 18 18 19 20 20 21 21 21 22 23 23 24 25 26 27 27 28 28 29 29 29 29 29 30 30 30 30 30 29 30 31 31 31 30 30 30 30 31 31 30
20 19 19 19 19 20 20 21 22 22 23 23 24 24 25 26 26 26 27 28 28 29 29 30 29 29 29 29 30 31 31 30 30 31 31 32 31 30 30 30 31 31 31
20 21 21 21 21 21 22 22 23 24 24 24 25 26 26 26 27 27 28 28 28 28 28 28 29 28 29 29 30 30 30 30 31 30 31 31 31 31 31 31 30 30 31
20 21 22 22 22 22 23 23 24 25 25 25 26 26 27 27 27 28 28 28 28 28 28 28 28 28 28 28 29 29 30 30 30 30 30 30 31 31 31 32 31 31 30
Wind_Direction
314 307 293 290 290 295 299 293 275 280 306 319 326 329 329 328 331 333 332 333 333 332 333 334 336 337 338 339 337 335 336 332 328 332 337 338 338 340 353 1 29 66 127
291 287 280 279 278 274 271 270 264 268 275 279 286 296 304 308 312 318 321 322 324 325 327 329 330 331 332 335 334 332 332 330 326 325 326 324 317 313 313 309 322 119 150
285 281 280 275 269 266 265 264 265 269 273 276 277 278 285 292 298 303 308 312 315 317 319 323 325 324 324 325 326 325 323 321 319 316 312 307 296 288 285 284 277 243 173
283 277 274 275 265 261 261 262 263 267 269 271 273 275 277 282 288 293 298 302 306 309 311 313 316 316 315 315 316 315 312 309 308 306 302 295 284 274 273 276 263 249 222
279 272 267 268 264 262 261 259 260 263 267 270 272 274 276 278 281 286 289 292 297 301 304 305 307 308 308 307 307 306 304 301 298 294 292 289 281 272 269 267 262 253 243
280 271 263 262 259 259 261 261 261 263 266 268 270 272 274 276 277 280 283 286 290 293 295 297 299 300 299 299 300 298 296 295 291 286 285 284 280 275 269 264 264 259 251
283 273 264 259 255 255 258 260 262 263 265 267 268 269 272 275 277 278 280 282 285 287 288 289 290 291 291 291 293 293 291 287 284 283 278 278 277 276 273 265 265 263 254
280 276 267 256 252 252 254 258 261 263 265 267 269 269 272 275 278 280 281 283 284 285 284 284 284 284 284 285 285 286 285 283 281 281 279 276 276 277 274 266 264 263 256
283 277 266 256 249 252 255 258 261 262 264 266 268 270 272 274 276 279 281 283 284 284 283 283 281 281 280 280 280 280 278 278 279 279 279 277 274 274 274 269 262 259 254
284 272 266 259 255 256 258 259 260 262 263 263 265 268 269 271 274 277 278 280 280 281 281 281 281 280 279 278 276 275 274 273 274 275 275 274 273 272 271 270 262 257 254
284 274 271 263 259 259 262 263 263 265 266 265 265 265 268 269 272 275 275 277 278 279 279 279 279 279 277 275 274 273 271 270 269 269 269 269 270 269 267 265 262 257 253
282 277 269 262 258 261 264 263 263 265 266 267 268 268 268 270 271 272 273 274 276 277 278 279 278 278 275 273 271 270 270 268 268 268 268 266 267 266 265 262 259 257 254
276 277 275 264 260 259 259 261 263 263 265 267 270 269 270 273 271 270 271 273 275 275 276 277 278 278 276 272 270 269 269 269 268 267 267 266 265 265 262 260 257 256 256
276 277 274 264 258 258 260 261 262 262 264 267 270 270 269 269 270 272 271 273 274 274 274 276 277 277 276 273 271 269 267 267 267 265 265 264 264 264 260 260 256 255 254
277 274 267 262 261 260 259 260 262 263 265 266 267 269 268 269 271 272 271 273 276 275 274 273 276 276 273 271 270 269 267 266 267 264 262 262 262 263 260 257 257 255 254
273 268 265 263 261 260 260 260 260 261 263 265 267 267 268 269 271 272 272 274 275 274 274 273 275 273 269 267 269 269 268 267 266 264 261 259 259 261 259 257 256 256 255
269 265 268 263 261 261 262 261 263 263 264 266 266 267 268 270 272 272 273 274 274 273 274 274 273 273 270 267 267 268 268 267 266 264 261 260 260 260 258 258 256 256 256
271 268 269 265 266 265 267 268 267 268 270 270 268 268 269 270 271 272 273 274 273 273 274 273 273 274 272 270 268 268 267 265 264 263 262 261 260 259 258 257 255 255 257
275 274 272 272 273 272 272 271 270 271 272 272 271 270 270 270 272 273 273 273 273 275 275 273 273 275 274 273 270 268 266 265 263 263 261 261 261 259 257 255 255 255 256
279 278 275 277 277 277 277 276 273 273 273 272 273 272 272 273 273 274 273 273 273 274 275 274 274 275 274 272 270 268 266 264 264 264 262 261 260 258 257 256 255 255 255
283 282 281 281 280 279 280 279 278 277 276 276 275 275 276 275 274 274 274 273 273 274 275 274 274 274 273 272 270 268 266 265 263 263 262 260 259 258 257 257 255 254 255
283 283 282 282 280 278 279 280 280 280 279 278 279 278 279 278 277 277 276 276 274 275 274 273 275 276 274 273 271 270 267 266 265 263 261 259 260 259 258 256 256 256 256
281 282 281 281 282 281 280 280 280 281 281 282 282 281 281 281 280 278 277 276 275 274 275 274 275 275 273 272 270 270 268 267 265 263 262 259 259 259 255 253 254 256 256
279 280 280 282 285 285 284 283 283 283 283 283 283 283 283 283 282 280 278 277 276 275 274 274 273 273 272 270 269 268 266 265 264 263 262 260 258 257 256 253 253 254 256
283 280 280 281 284 284 283 283 282 282 283 283 284 283 283 283 283 281 279 278 276 275 274 274 274 273 272 269 268 267 265 264 262 262 260 258 257 256 255 255 254 254 254
285 283 281 281 282 283 284 284 283 283 284 284 285 285 284 284 283 281 280 279 277 276 275 275 275 274 273 271 268 266 265 264 263 262 260 258 257 255 255 254 254 254 255
Height
5896 5896 5897 5897 5897 5897 5897 5897 5898 5898 5899 5900 5900 5901 5901 5902 5902 5902 5903 5902 5902 5902 5902 5902 5902 5901 5901 5900 5900 5899 5899 5899 5899 5898 5898 5898 5898 5898 5897 5897 5897 5897 5897
5896 5896 5896 5896 5896 5896 5896 5897 5897 5898 5899 5899 5900 5900 5901 5901 5901 5902 5902 5902 5902 5902 5902 5902 5901 5901 5901 5900 5900 5899 5899 5898 5898 5898 5898 5898 5898 5898 5898 5898 5898 5898 5898
5894 5895 5895 5895 5895 5896 5896 5896 5897 5897 5898 5899 5899 5900 5900 5900 5901 5901 5901 5901 5901 5901 5901 5901 5901 5900 5900 5900 5899 5899 5898 5898 5898 5898 5898 5898 5898 5898 5898 5898 5898 5898 5898
5893 5893 5894 5894 5894 5894 5895 5895 5896 5896 5897 5897 5898 5898 5899 5899 5900 5900 5900 5900 5900 5900 5900 5900 5900 5900 5899 5899 5899 5898 5898 5898 5898 5898 5898 5898 5898 5898 5898 5898 5898 5898 5898
5890 5891 5892 5892 5893 5893 5893 5894 5894 5895 5895 5896 5896 5897 5897 5898 5898 5898 5899 5899 5899 5899 5899 5899 5899 5898 5898 5898 5898 5898 5897 5897 5897 5897 5897 5897 5897 5897 5897 5897 5897 5897 5897
5888 5889 5889 5890 5891 5891 5892 5892 5893 5893 5894 5894 5895 5895 5895 5896 5896 5896 5897 5897 5897 5897 5897 5897 5897 5897 5897 5897 5897 5896 5896 5896 5896 5896 5896 5896 5896 5896 5896 5896 5897 5897 5897
5886 5887 5887 5888 5889 5889 5890 5890 5891 5891 5892 5892 5892 5893 5893 5893 5894 5894 5894 5894 5895 5895 5895 5895 5895 5895 5895 5895 5895 5895 5895 5894 5894 5894 5894 5894 5895 5895 5895 5895 5895 5896 5896
5885 5885 5885 5885 5886 5887 5887 5888 5889 5889 5890 5890 5890 5890 5891 5891 5891 5892 5892 5892 5892 5892 5892 5892 5892 5892 5892 5892 5892 5892 5892 5892 5892 5892 5892 5893 5893 5893 5893 5893 5894 5894 5895
5883 5882 5882 5883 5883 5884 5885 5885 5886 5886 5887 5887 5888 5888 5888 5889 5889 5889 5889 5889 5889 5889 5889 5889 5889 5889 5889 5890 5890 5890 5890 5890 5890 5890 5890 5890 5891 5891 5891 5891 5892 5892 5893
5879 5879 5880 5881 5882 5882 5882 5883 5883 5884 5884 5884 5885 5885 5886 5886 5886 5886 5886 5886 5886 5886 5885 5885 5885 5886 5886 5886 5887 5887 5887 5887 5887 5887 5887 5888 5888 5888 5889 5889 5890 5890 5891
5877 5877 5877 5878 5879 5879 5880 5880 5880 5881 5881 5881 5882 5882 5882 5883 5883 5883 5883 5883 5882 5882 5882 5882 5881 5881 5882 5882 5883 5883 5883 5883 5884 5884 5884 5885 5885 5885 5886 5887 5887 5888 5889
5874 5874 5874 5875 5875 5876 5876 5876 5877 5877 5878 5878 5878 5878 5879 5879 5879 5879 5879 5879 5879 5879 5878 5878 5878 5877 5878 5878 5878 5879 5879 5880 5880 5880 5881 5881 5882 5882 5882 5883 5884 5885 5886
5871 5871 5871 5871 5872 5872 5872 5873 5873 5874 5874 5874 5875 5875 5875 5875 5875 5875 5875 5875 5875 5874 5874 5874 5874 5873 5873 5874 5874 5875 5875 5876 5876 5877 5877 5877 5878 5878 5879 5879 5880 5881 5882
5867 5867 5867 5867 5868 5868 5869 5869 5869 5869 5870 5870 5870 5871 5871 5871 5871 5871 5871 5871 5870 5870 5870 5870 5869 5869 5869 5869 5869 5870 5870 5871 5871 5872 5872 5873 5874 5874 5875 5875 5876 5877 5878
5863 5863 5863 5864 5865 5864 5865 5865 5865 5865 5866 5866 5866 5866 5866 5866 5866 5866 5866 5866 5866 5865 5865 5865 5864 5864 5864 5864 5864 5865 5865 5866 5866 5867 5868 5868 5869 5870 5870 5871 5871 5872 5874
5859 5859 5860 5860 5860 5860 5860 5860 5860 5861 5861 5861 5862 5861 5861 5861 5861 5861 5861 5860 5860 5860 5860 5860 5859 5859 5858 5859 5859 5859 5860 5860 5861 5861 5862 5863 5864 5865 5865 5866 5867 5868 5869
5855 5855 5856 5856 5856 5856 5856 5856 5856 5856 5856 5856 5856 5856 5856 5856 5856 5855 5855 5855 5854 5854 5854 5854 5853 5853 5853 5853 5853 5854 5854 5855 5855 5856 5857 5857 5859 5860 5861 5861 5862 5863 5864
5852 5852 5852 5852 5852 5852 5852 5851 5851 5851 5851 5851 5851 5851 5850 5850 5850 5850 5849 5849 5849 5848 5848 5848 5848 5847 5847 5847 5848 5848 5849 5849 5850 5850 5851 5852 5853 5854 5855 5856 5857 5858 5859
5848 5848 5848 5848 5848 5848 5848 5847 5847 5847 5846 5846 5846 5845 5845 5844 5844 5843 5843 5843 5842 5842 5841 5841 5841 5841 5841 5841 5841 5841 5842 5843 5843 5844 5845 5846 5847 5848 5849 5850 5851 5852 5853
5845 5845 5844 5844 5844 5844 5843 5843 5842 5842 5841 5841 5840 5839 5838 5838 5837 5837 5836 5836 5835 5835 5835 5834 5834 5834 5834 5834 5834 5834 5835 5836 5836 5838 5838 5839 5840 5841 5843 5843 5844 5846 5846
5841 5841 5841 5840 5840 5839 5838 5838 5837 5837 5836 5835 5834 5833 5832 5831 5831 5830 5829 5829 5828 5828 5828 5828 5827 5827 5827 5827 5827 5827 5828 5828 5829 5830 5831 5832 5833 5834 5836 5837 5838 5839 5840
5838 5837 5837 5836 5835 5834 5834 5833 5832 5831 5830 5829 5828 5827 5826 5825 5824 5823 5822 5821 5821 5821 5820 5820 5820 5820 5819 5819 5820 5820 5821 5822 5822 5823 5824 5825 5826 5827 5828 5829 5831 5832 5833
5834 5833 5832 5831 5830 5829 5828 5827 5826 5825 5824 5823 5822 5821 5820 5819 5818 5816 5815 5814 5813 5813 5813 5813 5812 5812 5812 5812 5812 5813 5813 5814 5814 5815 5816 5817 5818 5819 5820 5822 5823 5825 5826
5830 5829 5828 5827 5825 5824 5823 5821 5820 5819 5818 5817 5816 5814 5813 5812 5811 5809 5808 5807 5806 5806 5805 5805 5804 5804 5804 5804 5804 5804 5805 5806 5806 5807 5808 5809 5810 5811 5813 5814 5815 5817 5819
5825 5824 5823 5822 5820 5819 5817 5816 5815 5813 5812 5810 5809 5808 5806 5805 5803 5802 5800 5799 5798 5798 5797 5797 5796 5796 5796 5796 5796 5796 5796 5797 5797 5799 5800 5801 5802 5803 5805 5806 5807 5809 5810
5820 5818 5817 5816 5814 5813 5811 5810 5808 5807 5805 5804 5802 5801 5799 5798 5796 5794 5793 5792 5791 5790 5790 5789 5789 5788 5788 5788 5788 5788 5789 5789 5790 5790 5792 5793 5794 5795 5796 5798 5799 5801 5802